QPF
0.00 0.00 0.00 0.00 0.01 0.01 0.00 0.01 0.01 0.02 0.02 0.01 0.01 0.01 0.02 0.03 0.03 0.04 0.02 0.01 0.02 0.03 0.04 0.05 0.09 0.08 0.06 0.06 0.06 0.08 0.08 0.12 0.12 0.14 0.15 0.14 0.14 0.15 0.15 0.10 0.09 0.10 0.12 0.12 0.11 0.12 0.09 0.09 0.09
0.00 0.00 0.00 0.00 0.02 0.01 0.01 0.02 0.02 0.03 0.02 0.00 0.01 0.01 0.01 0.02 0.02 0.04 0.02 0.02 0.03 0.04 0.06 0.07 0.08 0.07 0.06 0.05 0.05 0.06 0.07 0.11 0.13 0.14 0.15 0.14 0.13 0.14 0.16 0.12 0.09 0.11 0.13 0.12 0.13 0.13 0.10 0.09 0.07
0.00 0.00 0.00 0.00 0.01 0.01 0.01 0.03 0.04 0.02 0.01 0.01 0.01 0.01 0.02 0.04 0.04 0.05 0.05 0.04 0.03 0.04 0.06 0.07 0.05 0.06 0.06 0.06 0.05 0.06 0.06 0.10 0.11 0.14 0.16 0.17 0.16 0.16 0.16 0.15 0.16 0.19 0.18 0.16 0.12 0.12 0.11 0.09 0.07
0.00 0.00 0.00 0.00 0.00 0.00 0.01 0.02 0.02 0.02 0.01 0.00 0.01 0.02 0.03 0.05 0.06 0.07 0.05 0.03 0.02 0.02 0.04 0.06 0.05 0.06 0.06 0.06 0.06 0.06 0.06 0.06 0.09 0.14 0.14 0.14 0.14 0.12 0.12 0.12 0.15 0.17 0.15 0.13 0.13 0.13 0.11 0.07 0.04
0.00 0.00 0.00 0.00 0.00 0.00 0.01 0.00 0.00 0.00 0.00 0.01 0.02 0.04 0.05 0.07 0.08 0.06 0.03 0.01 0.01 0.01 0.03 0.05 0.06 0.05 0.05 0.05 0.05 0.05 0.07 0.07 0.10 0.15 0.14 0.13 0.11 0.11 0.10 0.11 0.14 0.17 0.16 0.13 0.10 0.08 0.07 0.05 0.04
0.00 0.00 0.00 0.00 0.00 0.00 0.00 0.00 0.00 0.00 0.00 0.01 0.02 0.03 0.05 0.05 0.05 0.03 0.01 0.01 0.01 0.01 0.02 0.03 0.04 0.05 0.05 0.06 0.06 0.06 0.10 0.11 0.13 0.12 0.13 0.12 0.09 0.08 0.09 0.10 0.10 0.09 0.09 0.08 0.07 0.06 0.06 0.04 0.04
0.00 0.00 0.00 0.00 0.00 0.00 0.00 0.00 0.00 0.00 0.00 0.01 0.01 0.02 0.03 0.03 0.03 0.02 0.01 0.02 0.02 0.01 0.01 0.01 0.02 0.04 0.06 0.12 0.16 0.15 0.14 0.13 0.14 0.12 0.11 0.11 0.09 0.08 0.09 0.08 0.08 0.06 0.06 0.06 0.06 0.05 0.04 0.03 0.03
0.00 0.00 0.00 0.00 0.00 0.00 0.00 0.00 0.00 0.00 0.00 0.00 0.01 0.02 0.02 0.02 0.02 0.01 0.01 0.01 0.01 0.01 0.01 0.01 0.02 0.02 0.05 0.11 0.16 0.16 0.15 0.14 0.15 0.14 0.11 0.10 0.09 0.08 0.09 0.08 0.07 0.07 0.06 0.06 0.06 0.05 0.04 0.02 0.03
0.00 0.00 0.00 0.00 0.00 0.00 0.00 0.00 0.00 0.00 0.00 0.00 0.00 0.01 0.01 0.01 0.01 0.01 0.01 0.01 0.01 0.01 0.01 0.01 0.02 0.02 0.03 0.06 0.12 0.14 0.14 0.13 0.13 0.14 0.12 0.09 0.08 0.08 0.10 0.10 0.10 0.09 0.07 0.06 0.06 0.05 0.04 0.03 0.05
0.00 0.00 0.00 0.00 0.00 0.00 0.00 0.00 0.00 0.00 0.00 0.00 0.00 0.01 0.01 0.01 0.01 0.01 0.01 0.01 0.02 0.01 0.01 0.01 0.01 0.02 0.02 0.04 0.06 0.05 0.06 0.07 0.09 0.11 0.13 0.10 0.09 0.10 0.10 0.14 0.14 0.11 0.09 0.07 0.06 0.05 0.03 0.03 0.05
0.00 0.00 0.00 0.00 0.00 0.00 0.00 0.00 0.00 0.00 0.00 0.00 0.00 0.00 0.00 0.00 0.01 0.01 0.01 0.02 0.02 0.02 0.01 0.02 0.02 0.02 0.02 0.03 0.04 0.06 0.05 0.06 0.08 0.10 0.14 0.13 0.12 0.12 0.13 0.15 0.13 0.11 0.08 0.07 0.06 0.05 0.03 0.03 0.04
0.00 0.00 0.00 0.00 0.00 0.00 0.00 0.00 0.00 0.00 0.00 0.00 0.00 0.00 0.00 0.00 0.00 0.01 0.01 0.02 0.02 0.01 0.01 0.01 0.01 0.02 0.02 0.03 0.03 0.05 0.03 0.04 0.06 0.08 0.14 0.12 0.12 0.13 0.12 0.11 0.09 0.07 0.06 0.06 0.05 0.05 0.03 0.03 0.03
0.00 0.00 0.00 0.00 0.00 0.00 0.00 0.00 0.00 0.00 0.00 0.00 0.00 0.00 0.00 0.00 0.00 0.01 0.01 0.01 0.01 0.01 0.01 0.01 0.01 0.02 0.02 0.03 0.03 0.03 0.04 0.04 0.06 0.09 0.15 0.12 0.11 0.12 0.10 0.09 0.07 0.04 0.03 0.04 0.05 0.06 0.05 0.05 0.04
0.00 0.00 0.00 0.00 0.00 0.00 0.00 0.00 0.00 0.00 0.00 0.00 0.00 0.00 0.00 0.00 0.00 0.00 0.01 0.01 0.01 0.01 0.01 0.01 0.01 0.03 0.04 0.04 0.03 0.03 0.04 0.06 0.08 0.11 0.16 0.14 0.10 0.10 0.10 0.08 0.07 0.04 0.04 0.05 0.06 0.08 0.07 0.07 0.07
0.00 0.00 0.00 0.00 0.00 0.00 0.00 0.00 0.00 0.00 0.00 0.00 0.00 0.00 0.00 0.00 0.00 0.00 0.01 0.01 0.01 0.01 0.02 0.02 0.01 0.03 0.05 0.05 0.03 0.02 0.02 0.03 0.08 0.12 0.14 0.13 0.10 0.10 0.10 0.09 0.08 0.05 0.04 0.06 0.10 0.11 0.09 0.08 0.07
0.00 0.00 0.00 0.00 0.00 0.00 0.00 0.00 0.00 0.00 0.00 0.00 0.00 0.00 0.00 0.00 0.00 0.00 0.00 0.01 0.01 0.01 0.02 0.02 0.01 0.03 0.06 0.06 0.05 0.02 0.02 0.03 0.06 0.10 0.11 0.10 0.09 0.10 0.10 0.10 0.08 0.07 0.07 0.10 0.15 0.14 0.12 0.11 0.09
0.00 0.00 0.00 0.00 0.00 0.00 0.00 0.00 0.00 0.00 0.00 0.00 0.00 0.00 0.00 0.00 0.00 0.00 0.00 0.00 0.00 0.01 0.01 0.02 0.02 0.03 0.04 0.03 0.03 0.02 0.02 0.03 0.03 0.05 0.08 0.09 0.07 0.07 0.08 0.12 0.12 0.11 0.11 0.13 0.13 0.14 0.14 0.10 0.08
0.00 0.00 0.00 0.00 0.00 0.00 0.00 0.00 0.00 0.00 0.00 0.00 0.00 0.00 0.00 0.00 0.00 0.00 0.00 0.00 0.00 0.00 0.01 0.02 0.03 0.03 0.03 0.02 0.03 0.03 0.03 0.03 0.03 0.03 0.07 0.07 0.06 0.06 0.09 0.13 0.14 0.13 0.13 0.14 0.14 0.14 0.13 0.09 0.08
0.00 0.00 0.00 0.00 0.00 0.00 0.00 0.00 0.00 0.00 0.00 0.00 0.00 0.00 0.00 0.00 0.00 0.00 0.00 0.00 0.00 0.00 0.01 0.04 0.06 0.02 0.02 0.03 0.04 0.05 0.05 0.04 0.04 0.03 0.03 0.04 0.04 0.06 0.09 0.11 0.13 0.13 0.12 0.12 0.12 0.11 0.08 0.08 0.07
0.00 0.00 0.00 0.00 0.00 0.00 0.00 0.00 0.00 0.00 0.00 0.00 0.00 0.00 0.00 0.00 0.00 0.00 0.00 0.00 0.00 0.00 0.00 0.01 0.02 0.02 0.02 0.02 0.03 0.03 0.04 0.03 0.03 0.03 0.03 0.03 0.03 0.05 0.07 0.12 0.11 0.10 0.10 0.09 0.08 0.08 0.07 0.06 0.05
0.00 0.00 0.00 0.00 0.00 0.00 0.00 0.00 0.00 0.00 0.00 0.00 0.00 0.00 0.00 0.00 0.00 0.00 0.00 0.00 0.00 0.00 0.00 0.00 0.01 0.02 0.02 0.01 0.02 0.02 0.02 0.02 0.03 0.03 0.04 0.04 0.04 0.03 0.04 0.06 0.07 0.08 0.05 0.05 0.06 0.05 0.06 0.05 0.05
0.00 0.00 0.00 0.00 0.00 0.00 0.00 0.00 0.00 0.00 0.00 0.00 0.00 0.00 0.00 0.00 0.00 0.00 0.00 0.00 0.00 0.00 0.00 0.00 0.01 0.01 0.01 0.01 0.02 0.02 0.03 0.04 0.04 0.04 0.04 0.03 0.03 0.02 0.03 0.03 0.04 0.05 0.04 0.06 0.04 0.04 0.05 0.06 0.06
0.00 0.00 0.00 0.00 0.00 0.00 0.00 0.00 0.00 0.00 0.00 0.00 0.00 0.00 0.00 0.00 0.00 0.00 0.00 0.00 0.00 0.00 0.00 0.00 0.01 0.01 0.01 0.01 0.01 0.03 0.04 0.05 0.04 0.04 0.04 0.03 0.02 0.02 0.01 0.02 0.02 0.03 0.03 0.04 0.04 0.04 0.05 0.05 0.05
0.00 0.00 0.00 0.00 0.00 0.00 0.00 0.00 0.00 0.00 0.00 0.00 0.00 0.00 0.00 0.00 0.00 0.00 0.00 0.00 0.00 0.00 0.00 0.00 0.01 0.01 0.01 0.01 0.00 0.01 0.03 0.04 0.03 0.04 0.04 0.04 0.03 0.03 0.02 0.02 0.03 0.03 0.02 0.03 0.04 0.05 0.05 0.04 0.05
0.00 0.00 0.00 0.01 0.01 0.00 0.00 0.00 0.00 0.00 0.00 0.00 0.00 0.00 0.00 0.00 0.00 0.00 0.00 0.00 0.00 0.00 0.00 0.00 0.01 0.01 0.01 0.00 0.00 0.01 0.03 0.05 0.04 0.04 0.05 0.04 0.02 0.03 0.04 0.03 0.03 0.03 0.02 0.02 0.03 0.03 0.04 0.03 0.04
0.00 0.00 0.01 0.00 0.00 0.00 0.00 0.00 0.00 0.00 0.00 0.00 0.00 0.00 0.00 0.00 0.00 0.00 0.00 0.00 0.00 0.00 0.00 0.00 0.01 0.01 0.01 0.00 0.00 0.01 0.03 0.05 0.05 0.05 0.05 0.05 0.04 0.04 0.03 0.03 0.03 0.03 0.02 0.02 0.02 0.03 0.03 0.03 0.03
0.00 0.00 0.00 0.00 0.00 0.00 0.00 0.00 0.00 0.00 0.00 0.00 0.00 0.00 0.00 0.00 0.00 0.00 0.00 0.00 0.00 0.00 0.00 0.00 0.01 0.01 0.01 0.00 0.00 0.00 0.01 0.03 0.05 0.06 0.06 0.04 0.04 0.02 0.03 0.03 0.03 0.03 0.03 0.03 0.03 0.03 0.03 0.03 0.03
0.00 0.00 0.00 0.00 0.00 0.00 0.00 0.00 0.00 0.00 0.00 0.00 0.00 0.00 0.00 0.00 0.00 0.00 0.01 0.01 0.01 0.01 0.01 0.01 0.01 0.01 0.01 0.00 0.00 0.00 0.01 0.01 0.02 0.03 0.04 0.03 0.03 0.03 0.03 0.03 0.03 0.03 0.04 0.04 0.04 0.04 0.03 0.04 0.04
0.00 0.00 0.00 0.00 0.00 0.00 0.00 0.00 0.00 0.00 0.00 0.00 0.00 0.00 0.00 0.00 0.01 0.01 0.01 0.02 0.01 0.01 0.00 0.00 0.01 0.01 0.01 0.01 0.01 0.01 0.01 0.01 0.01 0.02 0.02 0.03 0.03 0.04 0.04 0.04 0.04 0.05 0.05 0.05 0.05 0.04 0.03 0.03 0.03
0.00 0.00 0.00 0.00 0.00 0.00 0.00 0.00 0.00 0.00 0.00 0.00 0.00 0.00 0.00 0.00 0.00 0.01 0.01 0.01 0.01 0.00 0.00 0.01 0.01 0.01 0.01 0.01 0.01 0.01 0.01 0.01 0.03 0.03 0.02 0.02 0.03 0.03 0.03 0.04 0.04 0.05 0.06 0.05 0.04 0.04 0.03 0.03 0.03
MSLP
1007.27 1007.86 1008.74 1009.79 1010.91 1011.94 1012.79 1013.39 1013.74 1013.88 1013.89 1013.87 1013.88 1013.95 1014.07 1014.20 1014.29 1014.30 1014.21 1014.05 1013.86 1013.69 1013.59 1013.59 1013.68 1013.81 1013.93 1013.98 1013.92 1013.75 1013.49 1013.20 1012.93 1012.73 1012.62 1012.60 1012.62 1012.66 1012.67 1012.64 1012.58 1012.52 1012.49 1012.55 1012.70 1012.93 1013.22 1013.51 1013.77
1007.46 1008.21 1009.21 1010.37 1011.52 1012.54 1013.33 1013.82 1014.04 1014.03 1013.91 1013.78 1013.70 1013.71 1013.80 1013.94 1014.04 1014.08 1014.04 1013.92 1013.77 1013.65 1013.60 1013.66 1013.81 1014.00 1014.19 1014.31 1014.32 1014.22 1014.03 1013.79 1013.57 1013.41 1013.31 1013.29 1013.31 1013.33 1013.33 1013.28 1013.21 1013.14 1013.12 1013.19 1013.35 1013.60 1013.89 1014.18 1014.41
1007.79 1008.65 1009.74 1010.93 1012.08 1013.05 1013.74 1014.13 1014.22 1014.10 1013.88 1013.67 1013.53 1013.51 1013.58 1013.70 1013.81 1013.85 1013.82 1013.71 1013.59 1013.51 1013.51 1013.63 1013.85 1014.13 1014.41 1014.62 1014.72 1014.71 1014.59 1014.42 1014.25 1014.11 1014.04 1014.01 1014.02 1014.02 1013.99 1013.93 1013.85 1013.78 1013.78 1013.86 1014.03 1014.28 1014.57 1014.84 1015.04
1008.21 1009.14 1010.26 1011.43 1012.53 1013.41 1014.01 1014.29 1014.30 1014.10 1013.83 1013.59 1013.44 1013.40 1013.46 1013.57 1013.66 1013.68 1013.63 1013.52 1013.41 1013.35 1013.39 1013.57 1013.87 1014.23 1014.59 1014.90 1015.09 1015.16 1015.11 1015.00 1014.87 1014.76 1014.70 1014.68 1014.68 1014.68 1014.64 1014.57 1014.50 1014.44 1014.45 1014.54 1014.73 1014.98 1015.26 1015.50 1015.66
1008.67 1009.62 1010.71 1011.82 1012.83 1013.62 1014.12 1014.32 1014.27 1014.06 1013.79 1013.56 1013.43 1013.42 1013.48 1013.58 1013.65 1013.64 1013.55 1013.42 1013.29 1013.24 1013.31 1013.53 1013.88 1014.31 1014.74 1015.11 1015.37 1015.50 1015.51 1015.44 1015.35 1015.27 1015.23 1015.23 1015.24 1015.24 1015.22 1015.17 1015.11 1015.08 1015.10 1015.21 1015.40 1015.65 1015.90 1016.11 1016.23
1009.11 1010.02 1011.04 1012.06 1012.96 1013.64 1014.06 1014.21 1014.16 1013.97 1013.76 1013.59 1013.52 1013.55 1013.64 1013.74 1013.78 1013.73 1013.61 1013.44 1013.30 1013.24 1013.32 1013.55 1013.93 1014.38 1014.84 1015.24 1015.53 1015.68 1015.72 1015.69 1015.63 1015.58 1015.57 1015.60 1015.64 1015.67 1015.68 1015.66 1015.64 1015.63 1015.68 1015.80 1015.98 1016.21 1016.44 1016.60 1016.67
1009.47 1010.31 1011.23 1012.13 1012.91 1013.50 1013.85 1013.99 1013.96 1013.84 1013.71 1013.65 1013.67 1013.77 1013.90 1014.00 1014.03 1013.95 1013.80 1013.60 1013.43 1013.35 1013.42 1013.65 1014.01 1014.45 1014.90 1015.28 1015.55 1015.70 1015.74 1015.72 1015.69 1015.67 1015.70 1015.77 1015.86 1015.94 1015.99 1016.01 1016.02 1016.05 1016.11 1016.24 1016.41 1016.61 1016.79 1016.92 1016.95
1009.74 1010.50 1011.30 1012.07 1012.73 1013.23 1013.53 1013.67 1013.69 1013.66 1013.65 1013.70 1013.82 1013.99 1014.17 1014.29 1014.32 1014.23 1014.06 1013.84 1013.65 1013.56 1013.61 1013.80 1014.13 1014.52 1014.91 1015.23 1015.46 1015.58 1015.61 1015.60 1015.59 1015.61 1015.69 1015.80 1015.94 1016.06 1016.15 1016.21 1016.25 1016.29 1016.36 1016.48 1016.63 1016.80 1016.94 1017.03 1017.02
1009.93 1010.59 1011.28 1011.92 1012.47 1012.89 1013.17 1013.32 1013.40 1013.47 1013.57 1013.73 1013.94 1014.19 1014.41 1014.56 1014.59 1014.50 1014.33 1014.10 1013.91 1013.81 1013.83 1013.99 1014.25 1014.58 1014.89 1015.15 1015.31 1015.39 1015.41 1015.40 1015.41 1015.47 1015.59 1015.75 1015.93 1016.09 1016.21 1016.29 1016.34 1016.38 1016.43 1016.53 1016.65 1016.79 1016.90 1016.95 1016.92
1010.08 1010.64 1011.22 1011.75 1012.21 1012.56 1012.82 1012.99 1013.14 1013.29 1013.48 1013.73 1014.02 1014.32 1014.57 1014.74 1014.79 1014.71 1014.54 1014.34 1014.15 1014.05 1014.05 1014.18 1014.39 1014.64 1014.88 1015.06 1015.17 1015.22 1015.22 1015.22 1015.26 1015.36 1015.51 1015.71 1015.91 1016.08 1016.21 1016.28 1016.31 1016.33 1016.36 1016.42 1016.52 1016.62 1016.71 1016.74 1016.71
1010.22 1010.71 1011.18 1011.62 1012.00 1012.30 1012.55 1012.75 1012.94 1013.15 1013.42 1013.72 1014.06 1014.39 1014.66 1014.83 1014.89 1014.83 1014.69 1014.51 1014.35 1014.26 1014.26 1014.35 1014.52 1014.71 1014.89 1015.02 1015.09 1015.11 1015.11 1015.13 1015.20 1015.33 1015.51 1015.72 1015.93 1016.09 1016.19 1016.23 1016.23 1016.21 1016.21 1016.24 1016.30 1016.38 1016.46 1016.49 1016.47
1010.40 1010.82 1011.22 1011.58 1011.90 1012.17 1012.40 1012.62 1012.85 1013.11 1013.41 1013.74 1014.09 1014.42 1014.68 1014.86 1014.91 1014.87 1014.75 1014.61 1014.48 1014.42 1014.43 1014.51 1014.65 1014.81 1014.94 1015.04 1015.09 1015.10 1015.12 1015.17 1015.26 1015.41 1015.61 1015.82 1016.00 1016.13 1016.19 1016.19 1016.14 1016.07 1016.03 1016.04 1016.08 1016.16 1016.23 1016.27 1016.27
1010.64 1011.02 1011.35 1011.65 1011.92 1012.17 1012.39 1012.63 1012.88 1013.16 1013.47 1013.81 1014.14 1014.45 1014.69 1014.84 1014.89 1014.86 1014.77 1014.66 1014.58 1014.54 1014.57 1014.66 1014.79 1014.92 1015.04 1015.12 1015.17 1015.20 1015.23 1015.30 1015.42 1015.58 1015.77 1015.95 1016.10 1016.18 1016.19 1016.14 1016.04 1015.95 1015.88 1015.87 1015.91 1015.99 1016.07 1016.14 1016.15
1010.96 1011.29 1011.57 1011.82 1012.06 1012.29 1012.52 1012.76 1013.02 1013.31 1013.62 1013.93 1014.23 1014.49 1014.69 1014.82 1014.86 1014.83 1014.77 1014.70 1014.65 1014.65 1014.70 1014.79 1014.92 1015.05 1015.16 1015.25 1015.30 1015.35 1015.40 1015.48 1015.60 1015.75 1015.92 1016.06 1016.16 1016.20 1016.16 1016.07 1015.95 1015.83 1015.76 1015.75 1015.80 1015.90 1016.00 1016.08 1016.11
1011.31 1011.60 1011.84 1012.05 1012.27 1012.49 1012.72 1012.97 1013.24 1013.52 1013.81 1014.09 1014.34 1014.55 1014.71 1014.80 1014.83 1014.81 1014.77 1014.73 1014.71 1014.74 1014.81 1014.92 1015.05 1015.18 1015.29 1015.37 1015.44 1015.49 1015.55 1015.62 1015.73 1015.85 1015.98 1016.08 1016.13 1016.12 1016.06 1015.94 1015.82 1015.71 1015.66 1015.66 1015.74 1015.85 1015.97 1016.06 1016.10
1011.68 1011.91 1012.11 1012.30 1012.50 1012.72 1012.96 1013.22 1013.49 1013.75 1014.01 1014.24 1014.44 1014.60 1014.71 1014.78 1014.80 1014.78 1014.76 1014.75 1014.76 1014.81 1014.90 1015.02 1015.15 1015.27 1015.38 1015.47 1015.53 1015.57 1015.62 1015.68 1015.75 1015.82 1015.90 1015.95 1015.96 1015.92 1015.84 1015.73 1015.63 1015.55 1015.53 1015.57 1015.67 1015.79 1015.92 1016.02 1016.06
1012.01 1012.20 1012.36 1012.54 1012.74 1012.96 1013.21 1013.47 1013.73 1013.96 1014.18 1014.36 1014.50 1014.61 1014.68 1014.72 1014.73 1014.73 1014.73 1014.74 1014.78 1014.86 1014.96 1015.08 1015.21 1015.33 1015.43 1015.50 1015.55 1015.58 1015.60 1015.62 1015.64 1015.66 1015.68 1015.69 1015.66 1015.61 1015.54 1015.45 1015.39 1015.36 1015.38 1015.45 1015.56 1015.70 1015.82 1015.90 1015.93
1012.27 1012.42 1012.57 1012.74 1012.95 1013.20 1013.46 1013.71 1013.94 1014.14 1014.30 1014.41 1014.49 1014.54 1014.57 1014.59 1014.60 1014.61 1014.64 1014.68 1014.75 1014.85 1014.96 1015.09 1015.22 1015.33 1015.43 1015.49 1015.52 1015.52 1015.50 1015.48 1015.45 1015.41 1015.38 1015.34 1015.29 1015.24 1015.18 1015.14 1015.12 1015.14 1015.20 1015.29 1015.41 1015.54 1015.64 1015.70 1015.70
1012.43 1012.56 1012.71 1012.91 1013.16 1013.43 1013.70 1013.95 1014.16 1014.30 1014.38 1014.42 1014.42 1014.41 1014.39 1014.38 1014.38 1014.42 1014.47 1014.55 1014.65 1014.77 1014.90 1015.04 1015.17 1015.29 1015.38 1015.43 1015.45 1015.43 1015.38 1015.31 1015.23 1015.15 1015.07 1014.99 1014.93 1014.89 1014.86 1014.86 1014.88 1014.94 1015.03 1015.13 1015.24 1015.34 1015.41 1015.44 1015.41
1012.47 1012.62 1012.81 1013.07 1013.37 1013.69 1013.99 1014.23 1014.40 1014.48 1014.48 1014.42 1014.32 1014.23 1014.15 1014.11 1014.10 1014.14 1014.22 1014.33 1014.47 1014.62 1014.77 1014.93 1015.08 1015.21 1015.31 1015.37 1015.38 1015.36 1015.29 1015.19 1015.07 1014.94 1014.83 1014.73 1014.67 1014.63 1014.63 1014.66 1014.72 1014.81 1014.90 1015.00 1015.08 1015.14 1015.17 1015.16 1015.10
1012.41 1012.59 1012.87 1013.22 1013.61 1014.00 1014.34 1014.58 1014.71 1014.72 1014.63 1014.46 1014.26 1014.07 1013.92 1013.83 1013.81 1013.85 1013.94 1014.07 1014.23 1014.41 1014.59 1014.78 1014.95 1015.10 1015.22 1015.31 1015.34 1015.32 1015.25 1015.14 1015.00 1014.85 1014.72 1014.61 1014.54 1014.52 1014.54 1014.59 1014.67 1014.77 1014.86 1014.93 1014.98 1015.00 1014.98 1014.93 1014.86
1012.24 1012.50 1012.89 1013.36 1013.86 1014.35 1014.75 1015.01 1015.12 1015.07 1014.88 1014.61 1014.30 1014.02 1013.78 1013.63 1013.57 1013.59 1013.68 1013.82 1014.00 1014.20 1014.40 1014.61 1014.81 1014.99 1015.15 1015.26 1015.32 1015.33 1015.27 1015.16 1015.02 1014.87 1014.73 1014.62 1014.55 1014.53 1014.56 1014.63 1014.72 1014.81 1014.89 1014.94 1014.95 1014.92 1014.87 1014.79 1014.71
1011.99 1012.36 1012.87 1013.48 1014.12 1014.72 1015.20 1015.51 1015.62 1015.52 1015.27 1014.91 1014.50 1014.12 1013.80 1013.58 1013.47 1013.46 1013.52 1013.66 1013.83 1014.03 1014.24 1014.46 1014.68 1014.89 1015.07 1015.22 1015.31 1015.35 1015.32 1015.22 1015.09 1014.94 1014.80 1014.69 1014.62 1014.61 1014.65 1014.72 1014.81 1014.90 1014.96 1014.98 1014.97 1014.91 1014.84 1014.75 1014.66
1011.69 1012.17 1012.81 1013.56 1014.34 1015.06 1015.64 1016.01 1016.15 1016.05 1015.76 1015.35 1014.88 1014.42 1014.03 1013.74 1013.57 1013.51 1013.54 1013.64 1013.78 1013.96 1014.17 1014.38 1014.60 1014.82 1015.02 1015.18 1015.30 1015.35 1015.34 1015.26 1015.14 1014.99 1014.85 1014.73 1014.67 1014.66 1014.70 1014.78 1014.87 1014.96 1015.01 1015.02 1015.00 1014.93 1014.85 1014.76 1014.68
1011.39 1011.96 1012.70 1013.58 1014.48 1015.32 1016.00 1016.46 1016.66 1016.59 1016.32 1015.89 1015.40 1014.90 1014.46 1014.12 1013.89 1013.78 1013.76 1013.81 1013.91 1014.05 1014.21 1014.40 1014.59 1014.80 1014.98 1015.14 1015.26 1015.31 1015.30 1015.23 1015.10 1014.95 1014.80 1014.69 1014.62 1014.61 1014.66 1014.74 1014.84 1014.93 1014.98 1015.00 1014.98 1014.92 1014.84 1014.76 1014.70
1011.13 1011.75 1012.57 1013.52 1014.52 1015.46 1016.23 1016.78 1017.07 1017.08 1016.86 1016.47 1016.00 1015.51 1015.06 1014.69 1014.43 1014.26 1014.19 1014.18 1014.22 1014.30 1014.41 1014.54 1014.69 1014.85 1015.00 1015.13 1015.22 1015.25 1015.21 1015.11 1014.97 1014.81 1014.65 1014.52 1014.45 1014.43 1014.48 1014.57 1014.68 1014.78 1014.85 1014.88 1014.87 1014.82 1014.76 1014.69 1014.65
1010.96 1011.59 1012.43 1013.41 1014.45 1015.45 1016.30 1016.94 1017.32 1017.43 1017.31 1017.02 1016.61 1016.18 1015.76 1015.40 1015.12 1014.92 1014.80 1014.74 1014.71 1014.73 1014.77 1014.83 1014.92 1015.01 1015.10 1015.17 1015.20 1015.18 1015.10 1014.96 1014.78 1014.59 1014.41 1014.27 1014.18 1014.16 1014.21 1014.30 1014.42 1014.53 1014.62 1014.66 1014.66 1014.63 1014.58 1014.52 1014.48
1010.94 1011.53 1012.34 1013.29 1014.32 1015.33 1016.22 1016.93 1017.40 1017.62 1017.63 1017.45 1017.16 1016.82 1016.46 1016.15 1015.88 1015.68 1015.53 1015.42 1015.35 1015.30 1015.27 1015.27 1015.28 1015.30 1015.31 1015.31 1015.27 1015.18 1015.04 1014.85 1014.63 1014.39 1014.18 1014.01 1013.91 1013.88 1013.92 1014.01 1014.13 1014.24 1014.33 1014.38 1014.38 1014.36 1014.30 1014.25 1014.20
1011.10 1011.63 1012.35 1013.23 1014.19 1015.16 1016.05 1016.79 1017.33 1017.66 1017.79 1017.75 1017.60 1017.37 1017.11 1016.86 1016.64 1016.45 1016.30 1016.17 1016.06 1015.97 1015.89 1015.82 1015.77 1015.72 1015.67 1015.59 1015.48 1015.32 1015.11 1014.87 1014.59 1014.32 1014.07 1013.88 1013.75 1013.70 1013.73 1013.80 1013.90 1013.99 1014.07 1014.10 1014.09 1014.04 1013.97 1013.90 1013.83
1011.45 1011.91 1012.53 1013.29 1014.14 1015.02 1015.86 1016.60 1017.18 1017.60 1017.84 1017.93 1017.90 1017.80 1017.65 1017.49 1017.33 1017.17 1017.03 1016.90 1016.78 1016.66 1016.55 1016.45 1016.35 1016.26 1016.14 1016.01 1015.84 1015.62 1015.36 1015.06 1014.75 1014.44 1014.16 1013.94 1013.79 1013.71 1013.70 1013.74 1013.80 1013.86 1013.89 1013.88 1013.83 1013.74 1013.63 1013.52 1013.42
Thickness
5825 5828 5828 5822 5811 5795 5777 5780 5786 5781 5778 5783 5784 5781 5773 5767 5763 5752 5772 5780 5779 5779 5777 5773 5771 5772 5773 5774 5775 5776 5777 5778 5778 5778 5777 5777 5778 5777 5777 5777 5776 5776 5775 5774 5773 5772 5771 5770 5768
5836 5832 5826 5822 5803 5778 5771 5782 5780 5779 5782 5786 5784 5780 5774 5768 5773 5771 5775 5777 5779 5779 5777 5774 5771 5772 5773 5774 5775 5775 5776 5777 5777 5777 5776 5776 5776 5776 5775 5775 5774 5774 5773 5772 5771 5770 5769 5768 5767
5838 5835 5826 5818 5795 5780 5773 5783 5781 5784 5788 5785 5779 5779 5773 5766 5771 5773 5777 5778 5779 5778 5776 5773 5770 5771 5772 5773 5774 5774 5775 5775 5776 5775 5775 5775 5774 5774 5774 5773 5773 5772 5771 5770 5769 5768 5767 5766 5765
5839 5834 5830 5811 5788 5789 5789 5788 5789 5785 5784 5785 5781 5772 5772 5775 5776 5778 5779 5780 5779 5778 5777 5773 5770 5770 5771 5771 5772 5773 5774 5774 5775 5775 5774 5774 5773 5772 5772 5771 5771 5770 5769 5769 5767 5766 5765 5764 5763
5843 5835 5818 5801 5792 5795 5798 5797 5795 5786 5781 5782 5782 5770 5766 5776 5781 5780 5779 5780 5779 5779 5778 5774 5770 5770 5770 5771 5771 5772 5773 5773 5774 5774 5773 5773 5772 5771 5770 5770 5769 5768 5767 5766 5765 5765 5763 5763 5762
5840 5837 5812 5793 5790 5796 5800 5801 5797 5788 5783 5782 5780 5772 5767 5777 5779 5779 5780 5780 5781 5780 5778 5775 5771 5770 5769 5770 5770 5770 5771 5772 5773 5773 5773 5772 5771 5770 5770 5769 5768 5767 5766 5765 5764 5763 5762 5761 5761
5836 5828 5809 5803 5795 5794 5798 5804 5797 5789 5782 5783 5787 5774 5771 5776 5780 5782 5781 5780 5781 5781 5779 5778 5776 5772 5770 5770 5770 5769 5770 5771 5771 5772 5772 5771 5770 5769 5768 5768 5767 5766 5765 5764 5763 5762 5761 5761 5760
5848 5834 5815 5809 5801 5796 5805 5806 5802 5795 5787 5793 5792 5777 5771 5776 5782 5783 5781 5780 5780 5780 5780 5778 5778 5776 5775 5772 5768 5768 5769 5770 5770 5770 5770 5770 5769 5769 5768 5767 5766 5765 5764 5764 5763 5762 5761 5760 5759
5851 5831 5812 5812 5808 5803 5809 5803 5802 5806 5796 5793 5793 5790 5787 5785 5784 5780 5778 5777 5777 5777 5779 5780 5779 5777 5776 5775 5770 5769 5769 5769 5770 5770 5770 5771 5773 5772 5770 5767 5766 5765 5764 5763 5762 5761 5761 5760 5759
5847 5826 5818 5825 5826 5817 5811 5807 5804 5800 5791 5788 5787 5789 5789 5785 5782 5778 5776 5775 5774 5775 5778 5779 5778 5776 5776 5775 5772 5772 5772 5770 5771 5771 5771 5771 5770 5771 5770 5765 5765 5765 5764 5763 5762 5762 5761 5762 5763
5846 5830 5831 5832 5832 5827 5816 5811 5813 5802 5790 5791 5787 5785 5787 5785 5782 5780 5779 5778 5777 5778 5778 5779 5777 5775 5775 5774 5773 5772 5772 5771 5771 5770 5770 5770 5771 5771 5770 5770 5768 5766 5765 5766 5764 5765 5767 5767 5765
5842 5838 5838 5836 5835 5828 5821 5817 5811 5807 5802 5806 5802 5796 5790 5785 5784 5783 5781 5781 5780 5779 5778 5779 5777 5775 5773 5773 5773 5772 5773 5772 5773 5770 5771 5771 5770 5770 5770 5770 5770 5769 5768 5766 5767 5766 5766 5765 5765
5840 5838 5841 5840 5837 5832 5825 5818 5813 5808 5812 5811 5805 5798 5793 5790 5788 5788 5787 5785 5782 5779 5779 5779 5776 5774 5772 5771 5772 5773 5772 5773 5772 5771 5770 5770 5771 5770 5770 5769 5768 5770 5769 5768 5766 5766 5765 5764 5765
5845 5842 5839 5839 5835 5831 5822 5818 5815 5809 5815 5809 5803 5798 5797 5794 5793 5790 5787 5785 5783 5782 5781 5781 5778 5776 5773 5772 5771 5772 5773 5771 5772 5771 5770 5769 5770 5769 5770 5769 5769 5770 5769 5768 5767 5766 5765 5765 5764
5850 5837 5833 5835 5834 5831 5827 5811 5813 5817 5816 5807 5804 5801 5799 5798 5797 5793 5792 5789 5787 5785 5784 5782 5780 5778 5776 5775 5774 5775 5774 5774 5773 5771 5770 5770 5770 5769 5769 5770 5770 5770 5769 5767 5766 5765 5765 5764 5764
5845 5835 5825 5830 5834 5833 5824 5806 5818 5823 5816 5808 5806 5804 5801 5800 5800 5799 5798 5794 5792 5790 5786 5784 5785 5781 5778 5776 5775 5777 5776 5775 5774 5773 5772 5771 5770 5769 5769 5771 5771 5769 5769 5768 5766 5766 5765 5763 5763
5835 5827 5825 5827 5837 5833 5825 5816 5822 5826 5819 5811 5809 5808 5805 5803 5803 5804 5803 5799 5796 5793 5789 5786 5785 5783 5781 5779 5777 5777 5776 5775 5775 5775 5774 5772 5771 5770 5771 5771 5769 5768 5769 5769 5768 5767 5765 5762 5761
5827 5829 5827 5827 5835 5831 5824 5823 5826 5827 5823 5818 5815 5813 5810 5807 5807 5809 5807 5805 5801 5797 5792 5789 5787 5785 5784 5783 5780 5779 5778 5777 5776 5775 5774 5772 5772 5771 5771 5771 5769 5769 5769 5767 5766 5763 5762 5761 5760
5840 5833 5827 5831 5841 5831 5824 5825 5828 5830 5826 5822 5820 5818 5815 5814 5817 5815 5812 5809 5805 5800 5795 5792 5789 5787 5785 5784 5782 5779 5778 5778 5778 5777 5775 5773 5772 5772 5770 5772 5769 5768 5768 5766 5766 5764 5762 5760 5760
5837 5830 5829 5832 5838 5832 5826 5826 5836 5834 5830 5829 5826 5823 5821 5820 5819 5817 5814 5812 5808 5803 5799 5796 5792 5791 5789 5787 5784 5783 5782 5781 5780 5778 5775 5774 5773 5772 5773 5770 5770 5769 5767 5765 5763 5761 5760 5760 5760
5832 5831 5831 5828 5831 5834 5827 5822 5830 5836 5837 5835 5834 5833 5831 5827 5823 5820 5818 5815 5813 5808 5805 5803 5798 5795 5792 5790 5788 5786 5782 5781 5781 5778 5777 5775 5774 5772 5771 5770 5770 5768 5768 5766 5763 5761 5758 5757 5758
5825 5839 5836 5830 5823 5824 5825 5814 5827 5834 5832 5833 5835 5836 5836 5835 5832 5829 5824 5820 5818 5815 5812 5807 5803 5798 5795 5793 5790 5786 5783 5781 5781 5780 5779 5777 5774 5773 5771 5770 5769 5767 5768 5765 5764 5764 5761 5757 5756
5832 5841 5836 5831 5825 5823 5824 5816 5829 5836 5828 5834 5840 5842 5843 5842 5839 5835 5832 5827 5825 5822 5818 5813 5807 5802 5799 5796 5792 5788 5786 5785 5785 5782 5779 5777 5776 5774 5773 5771 5769 5767 5767 5765 5763 5761 5760 5760 5757
5836 5832 5828 5828 5825 5804 5818 5813 5819 5837 5836 5840 5845 5847 5847 5847 5844 5840 5838 5833 5829 5826 5822 5817 5810 5805 5802 5798 5796 5791 5787 5785 5783 5780 5779 5777 5777 5775 5773 5771 5768 5767 5766 5764 5762 5760 5760 5759 5757
5830 5817 5801 5796 5797 5802 5821 5814 5824 5845 5850 5849 5848 5849 5850 5849 5846 5842 5838 5834 5830 5827 5824 5820 5813 5807 5804 5801 5798 5794 5790 5787 5783 5782 5781 5779 5779 5776 5773 5772 5769 5767 5764 5763 5761 5759 5759 5757 5755
5824 5824 5801 5788 5793 5808 5811 5811 5834 5851 5854 5855 5855 5855 5852 5850 5848 5845 5842 5838 5834 5830 5826 5822 5816 5810 5807 5804 5800 5797 5793 5791 5790 5785 5784 5782 5781 5779 5776 5772 5769 5767 5765 5763 5760 5760 5758 5755 5753
5819 5822 5836 5819 5810 5803 5814 5821 5836 5849 5848 5850 5851 5852 5851 5850 5849 5847 5844 5842 5838 5833 5829 5825 5819 5813 5810 5807 5803 5799 5796 5793 5792 5787 5784 5784 5781 5779 5775 5772 5769 5766 5764 5762 5759 5758 5755 5754 5753
5830 5830 5820 5811 5789 5786 5803 5810 5821 5832 5838 5845 5846 5848 5850 5851 5850 5848 5846 5844 5841 5838 5833 5829 5823 5816 5813 5810 5806 5803 5798 5794 5791 5789 5785 5783 5781 5778 5775 5771 5768 5765 5763 5760 5758 5757 5754 5751 5749
5810 5813 5814 5813 5811 5792 5790 5810 5843 5840 5842 5844 5847 5849 5850 5850 5849 5847 5845 5844 5842 5838 5834 5827 5822 5817 5814 5811 5807 5804 5800 5796 5793 5789 5786 5783 5780 5777 5774 5771 5767 5764 5761 5759 5756 5755 5752 5749 5747
5819 5816 5811 5795 5793 5801 5800 5815 5848 5847 5848 5847 5847 5848 5849 5848 5848 5846 5844 5841 5839 5835 5832 5827 5823 5819 5815 5812 5808 5803 5799 5796 5793 5790 5787 5784 5780 5777 5774 5771 5767 5763 5760 5757 5754 5751 5750 5747 5744